TimeAKST,TemperatureF,Dew PointF,Humidity,Sea Level PressureIn,VisibilityMPH,Wind Direction,Wind SpeedMPH,Gust SpeedMPH,PrecipitationIn,Events,Conditions,WindDirDegrees,DateUTC
12:53 AM,-15.0,-20.0,78,29.49,10.0,West,8.1,-,N/A,,Clear,280,2012-12-13 09:53:00
1:51 AM,-16.6,-20.2,84,29.48,7.0,West,8.1,-,0.00,Snow,Light Snow,260,2012-12-13 10:51:00
1:53 AM,-16.1,-20.9,79,29.49,7.0,West,8.1,-,0.00,Snow,Light Snow,270,2012-12-13 10:53:00
2:53 AM,-14.1,-18.9,79,29.49,7.0,West,9.2,-,0.00,Snow,Light Snow,270,2012-12-13 11:53:00
3:53 AM,-14.1,-20.0,75,29.49,7.0,West,10.4,-,0.00,Snow,Light Snow,270,2012-12-13 12:53:00
4:53 AM,-15.0,-20.0,78,29.49,9.0,West,9.2,-,0.00,,Scattered Clouds,270,2012-12-13 13:53:00
5:53 AM,-27.0,-31.0,81,29.50,10.0,SW,5.8,-,N/A,,Clear,220,2012-12-13 14:53:00
6:53 AM,-26.0,-31.0,77,29.50,10.0,SW,4.6,-,N/A,,Scattered Clouds,230,2012-12-13 15:53:00
7:53 AM,-23.1,-29.0,74,29.50,9.0,SW,5.8,-,N/A,,Mostly Cloudy,220,2012-12-13 16:53:00
8:53 AM,-23.1,-29.0,74,29.51,8.0,SW,9.2,-,0.00,,Scattered Clouds,220,2012-12-13 17:53:00
9:53 AM,-26.0,-31.0,77,29.52,9.0,SSW,9.2,-,N/A,,Clear,200,2012-12-13 18:53:00
10:53 AM,-27.0,-32.1,77,29.52,10.0,SSW,10.4,-,N/A,,Clear,210,2012-12-13 19:53:00
11:53 AM,-26.0,-31.0,77,29.53,10.0,SSW,11.5,-,N/A,,Partly Cloudy,200,2012-12-13 20:53:00
12:53 PM,-26.0,-31.0,77,29.54,9.0,SSW,10.4,-,N/A,,Scattered Clouds,200,2012-12-13 21:53:00
2:53 PM,-27.4,-32.8,75,29.54,10.0,SSW,11.5,-,N/A,,Partly Cloudy,200,2012-12-13 23:53:00
3:53 PM,-27.9,-33.0,77,29.54,10.0,SSW,11.5,-,N/A,,Clear,200,2012-12-14 00:53:00
4:53 PM,-29.0,-35.0,73,29.55,10.0,SSW,10.4,-,N/A,,Clear,200,2012-12-14 01:53:00
5:53 PM,-27.9,-34.1,73,29.55,9.0,SSW,10.4,-,N/A,,Clear,200,2012-12-14 02:53:00
6:53 PM,-29.0,-34.1,77,29.55,10.0,SSW,11.5,-,N/A,,Clear,200,2012-12-14 03:53:00
7:53 PM,-27.9,-33.0,77,29.55,10.0,SSW,11.5,-,N/A,,Clear,200,2012-12-14 04:53:00
8:53 PM,-29.0,-34.1,77,29.55,10.0,South,11.5,-,N/A,,Clear,190,2012-12-14 05:53:00
9:53 PM,-29.0,-34.1,77,29.56,10.0,SSW,11.5,-,N/A,,Clear,200,2012-12-14 06:53:00
10:53 PM,-29.0,-34.1,77,29.56,10.0,SSW,12.7,-,N/A,,Clear,200,2012-12-14 07:53:00
11:53 PM,-29.0,-34.1,77,29.56,10.0,SSW,11.5,-,N/A,,Clear,200,2012-12-14 08:53:00